Nashua, NH

6:00 AM EDT on April 25, 2018 (GMT -0400)
Boire

Weather History for KASH - August, 2013

Change the Weather History Date:

Monday, August 19, 2013

  Actual Average Record
Temperature  
Mean Temperature 69 °F -  
Max Temperature 81 °F 79 °F 92 °F (1966)
Min Temperature 57 °F 54 °F 40 °F (1968)
Cooling Degree Days 4    
Growing Degree Days 19 (Base 50)    
Moisture  
Dew Point 59 °F    
Average Humidity 70    
Maximum Humidity 97    
Minimum Humidity 42    
Precipitation  
Precipitation 0.00 in - - ()
Sea Level Pressure  
Sea Level Pressure 30.74 in    
Wind  
Wind Speed 2 mph (WNW)    
Max Wind Speed 10 mph    
Max Gust Speed 21 mph    
Visibility 10 miles    
Events      
Averages and records for this station are not official NWS values.
T = Trace of Precipitation, MM = Missing Value Source: NWS Daily Summary

Daily Weather History Graph

Daily Weather History Graph

Search for Another Location

Airport or City:

Astronomy

Aug. 19, 2013 Rise Set
Actual Time 5:56 AM EDT 7:41 PM EDT
Civil Twilight 5:26 AM EDT 8:11 PM EDT
Nautical Twilight 4:50 AM EDT 8:47 PM EDT
Astronomical Twilight 4:10 AM EDT 9:27 PM EDT
Moon 6:30 PM EDT (8/19) 4:11 AM EDT (8/19)
Length of Visible Light 14h 44m
Length of Day
13h 44m
Waxing Gibbous, 97% of the Moon is Illuminated
Aug 19
Waxing Gibbous
Aug 20
Full
Aug 28
Last Quarter
Sep 5
New
Sep 12
First Quarter

Hourly Weather History & Observations

Time (EDT) Temp. Heat Index Dew Point Humidity Pressure Visibility Wind Dir Wind Speed Gust Speed Precip Events Conditions
12:51 AM 63.0 °F - 61.0 °F 93% 30.81 in 10.0 mi Calm Calm - N/A   Clear
1:51 AM 61.0 °F - 59.9 °F 96% 30.79 in 10.0 mi Calm Calm - N/A   Clear
2:51 AM 59.9 °F - 59.0 °F 97% 30.78 in 10.0 mi Calm Calm - N/A   Clear
3:51 AM 59.0 °F - 57.9 °F 96% 30.78 in 10.0 mi Calm Calm - N/A   Clear
4:51 AM 57.9 °F - 56.8 °F 96% 30.78 in 9.0 mi Calm Calm - N/A   Clear
5:51 AM 57.9 °F - 56.8 °F 96% 30.78 in 6.0 mi Calm Calm - N/A   Clear
6:51 AM 57.9 °F - 55.9 °F 93% 30.78 in 10.0 mi Calm Calm - N/A   Clear
7:51 AM 63.9 °F - 59.9 °F 87% 30.77 in 10.0 mi Calm Calm - N/A   Clear
8:51 AM 70.0 °F - 59.9 °F 70% 30.77 in 10.0 mi Variable 4.6 mph - N/A   Clear
9:51 AM 72.9 °F - 57.9 °F 59% 30.76 in 10.0 mi WNW 5.8 mph - N/A   Clear
10:51 AM 77.0 °F - 57.9 °F 52% 30.74 in 10.0 mi Variable 5.8 mph - N/A   Clear
11:51 AM 79.9 °F - 56.8 °F 45% 30.73 in 10.0 mi WNW 8.1 mph 20.7 mph N/A   Clear
12:51 PM 81.0 °F 81.0 °F 56.8 °F 44% 30.72 in 10.0 mi NNW 10.4 mph - N/A   Partly Cloudy
1:51 PM 81.0 °F 80.8 °F 55.9 °F 42% 30.71 in 10.0 mi NW 9.2 mph - N/A   Partly Cloudy
2:51 PM 81.0 °F 81.1 °F 57.9 °F 45% 30.70 in 10.0 mi WNW 8.1 mph - N/A   Scattered Clouds
3:51 PM 79.9 °F - 57.9 °F 47% 30.70 in 10.0 mi Variable 5.8 mph - N/A   Clear
4:51 PM 79.9 °F - 59.0 °F 49% 30.69 in 10.0 mi West 6.9 mph - N/A   Mostly Cloudy
5:51 PM 79.0 °F - 61.0 °F 54% 30.69 in 10.0 mi Variable 4.6 mph - N/A   Mostly Cloudy
6:51 PM 75.9 °F - 61.9 °F 62% 30.70 in 10.0 mi Calm Calm - N/A   Mostly Cloudy
7:51 PM 73.9 °F - 61.9 °F 66% 30.70 in 10.0 mi Variable 4.6 mph - N/A   Clear
8:51 PM 72.9 °F - 61.0 °F 66% 30.71 in 10.0 mi Calm Calm - N/A   Clear
9:51 PM 70.0 °F - 61.0 °F 73% 30.71 in 10.0 mi Calm Calm - N/A   Clear
10:51 PM 68.9 °F - 61.0 °F 76% 30.71 in 10.0 mi Calm Calm - N/A   Clear
11:51 PM 66.9 °F - 61.0 °F 81% 30.71 in 10.0 mi Calm Calm - N/A   Clear